Home   Weather   Foz do Iguaçu   Past weeks

Flag for Brazil Past Weather in Foz do Iguaçu, Paraná, Brazil — Yesterday and Last 2 Weeks

Now
73 °F

Clear.


Feels Like: 70 °F
Forecast: 71 / 80 °F
Wind: 5 mph from East

Location: Foz Do Iguacu Aeroporto

Current Time: May 24, 2017 at 10:06:53 pm

Latest Report: May 24, 2017 at 9:00 pm


Visibility: 10 mi

Pressure: 29.95 "Hg

Humidity: 94%

Dew Point: 72 °F

Location of Foz do IguaçuLocation

Past Weather in Foz do Iguaçu — Graph

°F

Foz do Iguaçu Temperature Yesterday

Maximum temperature yesterday: 75 °F (at 4:00 pm)
Minimum temperature yesterday: 66 °F (at 12:00 am)
Average temperature yesterday: 69 °F

High & Low Weather Summary for the Past Weeks

 TemperatureHumidityPressure
High81 °F (May 10, 4:00 pm)100% (May 9, 9:00 pm)30.09 "Hg (May 9, 9:00 pm)
Low50 °F (May 16, 7:00 am)61% (May 12, 12:00 pm)29.59 "Hg (May 13, 4:00 pm)
Average67 °F92%29.93 "Hg
* Reported May 9 9:00 pm — May 24 9:00 pm, Foz do Iguaçu. Weather by CustomWeather, © 2017

Note: Actual official high and low records may vary slightly from our data, if they occured in-between our weather recording intervals... More about our weather records

Advertising

Foz do Iguaçu Weather History for the Previous 24 Hours

Scroll right to see more
 ConditionsComfort  
Time TempWeatherWind HumidityBarometerVisibility
9:00 pm
Wed, May 24
73 °FClear.5 mph94%29.95 "Hg10 mi
8:00 pm73 °FClear.6 mph94%29.95 "Hg10 mi
7:00 pm73 °FClear.5 mph94%29.95 "Hg10 mi
6:00 pm75 °FClear.5 mph89%29.95 "Hg10 mi
5:00 pm77 °FSunny.6 mph83%29.95 "Hg10 mi
4:00 pm77 °FSunny.9 mph83%29.95 "Hg10 mi
3:00 pm79 °FSunny.7 mph79%29.95 "Hg10 mi
2:00 pm79 °FSunny.6 mph79%29.98 "Hg10 mi
1:00 pm77 °FSunny.7 mph79%30.01 "Hg10 mi
12:00 pm75 °FSunny.7 mph78%30.04 "Hg10 mi
11:00 am75 °FSunny.6 mph78%30.04 "Hg10 mi
10:00 am73 °FSunny.7 mph83%30.04 "Hg10 mi
9:00 am68 °FSunny.9 mph94%30.04 "Hg10 mi
8:00 am68 °FSunny.5 mph94%30.01 "Hg10 mi
7:00 am68 °FClear.3 mph94%30.01 "Hg10 mi
6:00 am68 °FClear.5 mph94%29.95 "Hg10 mi
5:00 am68 °FClear.6 mph94%29.95 "Hg10 mi
4:00 am68 °FClear.3 mph94%29.95 "Hg10 mi
3:00 am70 °FPassing clouds.8 mph88%29.95 "HgN/A
2:00 am70 °FPassing clouds.5 mph88%29.95 "HgN/A
1:00 am70 °FPassing clouds.5 mph94%29.95 "HgN/A
12:00 am70 °FPassing clouds.3 mph94%29.98 "HgN/A
11:00 pm
Tue, May 23
70 °FPassing clouds.5 mph94%29.95 "HgN/A
10:00 pm70 °FPartly cloudy.6 mph100%29.98 "HgN/A
Weather by CustomWeather, © 2017

See weather overviewHow to use our weather pages